Regional Weather Roundup
Issued by NWS

Home | Current Version | Previous Version | Graphics & Text | Print | Product List | Glossary On
Versions: 1 2 3 4 5 6 7 8 9 10 11 12 13 14 15 16 17 18 19 20 21 22 23 24 25 26 27 28 29 30 31 32 33 34 35 36 37 38 39 40 41 42 43 44 45 46 47 48 49 50
000
ASUS43 KOAX 241002
RWRNE

WEATHER ROUNDUP FOR NEBRASKA
NATIONAL WEATHER SERVICE OMAHA NE
400 AM CST FRI NOV 24 2017

NOTES: SATELLITE DATA IS BEING USED TO AUGMENT CLOUD COVER ABOVE
       12000 FEET.
       "FAIR" INDICATES FEW OR NO CLOUDS BELOW 12,000 FEET WITH NO
       SIGNIFICANT WEATHER AND/OR OBSTRUCTIONS TO VISIBILITY.


NEZ001>004-019>022-054>056-241100-
NEBRASKA PANHANDLE

CITY           SKY/WX    TMP DP  RH WIND       PRES   REMARKS
SCOTTSBLUFF    CLEAR     63  34  33 W28G43    29.72F
ALLIANCE       CLEAR     50  36  58 W10       29.70F
CHADRON        CLEAR     46  35  65 S7        29.65R
GORDON         FAIR      46  36  67 W12       29.62F
KIMBALL        CLOUDY    56  31  39 W10       29.81S
SIDNEY         CLOUDY    58  33  39 W13       29.78F
$$

NEZ057>060-069>072-079>082-241100-
SOUTHWEST NEBRASKA

CITY           SKY/WX    TMP DP  RH WIND       PRES   REMARKS
NORTH PLATTE   CLEAR     36  33  89 NW3       29.69F
IMPERIAL       PTCLDY    49  29  46 W10       29.74F
LEXINGTON      PTCLDY    40  33  78 NW5       29.67F
MCCOOK         PTCLDY    45  36  70 W9        29.71F
OGALLALA       CLOUDY    43  32  65 W7        29.72F
$$

NEZ005>010-023>029-035>040-094-241100-
NORTH CENTRAL NEBRASKA

CITY           SKY/WX    TMP DP  RH WIND       PRES   REMARKS
VALENTINE      CLEAR     45  37  73 W7        29.57F
AINSWORTH      CLEAR     48  39  71 W12       29.56F
BROKEN BOW     CLEAR     51  37  58 W9        29.62F
O`NEILL        CLEAR     46  39  76 SW8       29.53F
ORD            CLOUDY    47  38  71 SE3       29.58F
THEDFORD       CLEAR     52  38  59 W7        29.63F
$$

NEZ041-046>049-061>064-073>077-083>087-241100-
SOUTH CENTRAL NEBRASKA

CITY           SKY/WX    TMP DP  RH WIND       PRES   REMARKS
GRAND ISLAND   CLOUDY    50  40  68 SW13      29.62F
AURORA         CLOUDY    49  38  66 SW12      29.61F
HASTINGS       MOCLDY    50  38  63 SW7       29.64F
HEBRON         CLOUDY    52  40  63 SW12      29.66F
HOLDREGE       CLEAR     50  38  62 W12       29.67F
KEARNEY        CLOUDY    50  37  61 SW10      29.65F
YORK           MOCLDY    50  41  71 SW12      29.62F
$$

NEZ011>018-030>034-042>045-241100-
NORTHEAST NEBRASKA

CITY           SKY/WX    TMP DP  RH WIND       PRES   REMARKS
NORFOLK        CLEAR     48  40  73 SW12      29.53F
ALBION         CLEAR     51  40  66 CALM      29.56F
BLAIR          CLEAR     52  40  65 S12       29.58F
COLUMBUS       CLEAR     50  40  68 SW6       29.58F
FREMONT        CLEAR     51  39  63 S10       29.58F
TEKAMAH        CLEAR     48  38  68 S15       29.56F
WAYNE          CLEAR     45  39  81 S7        29.52F
$$

NEZ050>053-065>068-078-088>093-241100-
SOUTHEAST NEBRASKA

CITY           SKY/WX    TMP DP  RH WIND       PRES   REMARKS
LINCOLN        CLOUDY    53  40  61 SW12      29.63F
OMAHA EPPLEY   CLEAR     45  37  73 S10       29.60F
BEATRICE       PTCLDY    51  40  64 S8        29.66F
FALLS CITY     CLEAR     51  37  58 SW14      29.69F
NEBRASKA CITY  CLEAR     52  39  61 SW12      29.65F
PLATTSMOUTH    PTCLDY    52  40  63 S18       29.61F
$$

NEZ044-045-051>053-067-241100-
OMAHA AREA

CITY           SKY/WX    TMP DP  RH WIND       PRES   REMARKS
OMAHA EPPLEY   CLEAR     45  37  73 S10       29.60F
BLAIR          CLEAR     52  40  65 S12       29.58F
FREMONT        CLEAR     51  39  63 S10       29.58F
MILLARD        CLEAR     54  41  62 S7        29.60F
OFFUTT AFB     CLEAR     46  37  71 SE9       29.60F
PLATTSMOUTH    PTCLDY    52  40  63 S18       29.61F
WAHOO          FAIR      51  39  63 SW13      29.58F
$$




USA.gov is the U.S. government's official web portal to all federal, state and local government web resources and services.